Tracking 19576 objects as of 17-Feb-2019
HD Live streaming from Space Station
objects crossing your sky now

METEOR 2-5 DEB

Track METEOR 2-5 DEB now!
10-day predictions


NORAD ID: 35253
Int'l Code: 1979-095U
Perigee: 739.1 km
Apogee: 755.6 km
Inclination: 81.2 °
Period: 99.6 minutes
Semi major axis: 7118 km
RCS: 0.0128 m2 (small)
Launch date: October 31, 1979
Source: Commonwealth of Independent States (former USSR) (CIS)
Launch site: PLESETSK MISSILE AND SPACE COMPLEX (PKMTR)

Note: This is SATELLITE DEBRIS
aabbcc
Your satellite tracking list
Your tracking list is empty




NASA's NSSDC Master Catalog

Two Line Element Set (TLE):
1 35253U 79095U   19046.88705067  .00002620  00000-0  73850-3 0  9995
2 35253  81.1870 107.4459 0011641 264.8374 220.6594 14.45549568779060
Source of the keplerian elements: AFSPC